GW2953 Weather Reports


Display with metric or nautical units.
time (UTC)temp
F
wind
direction
speed
MPH
gust
MPH
rain 1hr
in
rain 24hr
in
rain mn
in
humidity
%
barometer
mb
20260901131749 56 357 2.0 4.0 0.00 0.00 0.00 72 1012.6
20260901131248 56 126 0.0 7.0 0.00 0.00 0.00 70 1012.8
20260901130743 57 140 6.0 9.0 0.00 0.00 0.00 70 1012.8
20260901130243 58 269 6.0 8.0 0.00 0.00 0.00 68 1012.6
20260901125740 58 244 5.0 15.0 0.00 0.00 0.00 67 1012.9
20260901125235 58 248 9.0 14.0 0.00 0.00 0.00 67 1012.4
20260901124730 58 277 8.0 13.0 0.00 0.00 0.00 66 1012.9
20260901124225 59 207 8.0 13.0 0.00 0.00 0.00 65 1012.8
20260901123724 59 199 6.0 11.0 0.00 0.00 0.00 65 1012.8
20260901123220 59 266 6.0 13.0 0.00 0.00 0.00 65 1012.8
20260901122718 59 232 9.0 15.0 0.00 0.00 0.00 64 1012.8
20260901122213 58 274 6.0 12.0 0.00 0.00 0.00 64 1012.8
20260901121707 58 259 5.0 11.0 0.00 0.00 0.00 65 1012.8
20260901121203 57 298 4.0 8.0 0.00 0.00 0.00 67 1012.9
20260901120702 57 138 4.0 10.0 0.00 0.00 0.00 64 1013.0
20260901120157 58 153 3.0 8.0 0.00 0.00 0.00 63 1013.0
20260901115653 57 32 0.0 6.0 0.00 0.00 0.00 64 1013.0
20260901115149 59 216 4.0 6.0 0.00 0.00 0.00 62 1013.0
20260901114645 57 266 4.0 6.0 0.00 0.00 0.00 67 1012.9
20260901114145 55 267 1.0 3.0 0.00 0.00 0.00 70 1013.1
20260901113643 55 92 1.0 2.0 0.00 0.00 0.00 70 1013.0
20260901113138 55 83 2.0 2.0 0.00 0.00 0.00 70 1012.9
20260901112632 55 79 0.0 4.0 0.00 0.00 0.00 69 1012.9
20260901112127 55 351 3.0 4.0 0.00 0.00 0.00 69 1013.0
20260901111626 56 93 3.0 3.0 0.00 0.00 0.00 69 1012.8
20260901111126 55 304 1.0 4.0 0.00 0.00 0.00 70 1012.8
20260901110621 55 299 1.0 3.0 0.00 0.00 0.00 69 1012.4
20260901110116 54 309 3.0 4.0 0.00 0.00 0.00 70 1012.5
20260901105613 54 138 2.0 5.0 0.00 0.00 0.00 68 1012.5
20260901105106 56 165 4.0 7.0 0.00 0.00 0.00 68 1012.3
20260901104603 55 130 3.0 5.0 0.00 0.00 0.00 68 1012.1
20260901104057 54 284 3.0 4.0 0.00 0.00 0.00 68 1012.3
20260901103556 56 88 3.0 4.0 0.00 0.00 0.00 67 1012.3
20260901103052 55 224 0.0 3.0 0.00 0.00 0.00 67 1012.3
20260901102547 55 335 2.0 3.0 0.00 0.00 0.00 66 1012.4
20260901102042 56 279 0.0 4.0 0.00 0.00 0.00 68 1012.2
20260901101538 55 350 1.0 3.0 0.00 0.00 0.00 64 1012.3
20260901101036 55 68 3.0 4.0 0.00 0.00 0.00 68 1012.2
20260901100531 55 65 3.0 3.0 0.00 0.00 0.00 63 1012.4
20260901100030 55 82 2.0 3.0 0.00 0.00 0.00 63 1012.3
20260901095529 56 315 0.0 3.0 0.00 0.00 0.00 63 1012.4
20260901095026 55 236 2.0 2.0 0.00 0.00 0.00 62 1012.3
20260901094522 56 132 2.0 2.0 0.00 0.00 0.00 61 1012.4
20260901094021 57 79 3.0 3.0 0.00 0.00 0.00 63 1012.3
20260901093516 56 30 0.0 2.0 0.00 0.00 0.00 61 1012.1
20260901093011 56 309 1.0 3.0 0.00 0.00 0.00 60 1012.3
20260901092508 56 36 3.0 4.0 0.00 0.00 0.00 63 1012.2
20260901092003 57 89 2.0 3.0 0.00 0.00 0.00 61 1012.1
20260901091459 57 82 2.0 4.0 0.00 0.00 0.00 58 1012.0
20260901090953 58 297 0.0 1.0 0.00 0.00 0.00 59 1012.0
20260901090452 57 54 0.0 3.0 0.00 0.00 0.00 57 1012.3
20260901085948 57 290 0.0 2.0 0.00 0.00 0.00 57 1012.2
20260901085444 57 37 0.0 3.0 0.00 0.00 0.00 56 1012.3
20260901084940 58 89 2.0 3.0 0.00 0.00 0.00 56 1012.3
20260901084436 58 6 0.0 1.0 0.00 0.00 0.00 57 1012.1
20260901083931 58 28 0.0 2.0 0.00 0.00 0.00 54 1012.3
20260901083431 58 19 1.0 2.0 0.00 0.00 0.00 56 1012.3
20260901082929 58 322 0.0 1.0 0.00 0.00 0.00 56 1012.4
20260901082425 59 216 0.0 2.0 0.00 0.00 0.00 54 1012.2
20260901081919 59 84 0.0 3.0 0.00 0.00 0.00 52 1012.2
20260901081414 59 322 2.0 3.0 0.00 0.00 0.00 57 1012.1
20260901080909 59 0 2.0 3.0 0.00 0.00 0.00 53 1012.2
20260901080404 59 87 1.0 2.0 0.00 0.00 0.00 52 1012.3
20260901075858 58 352 2.0 5.0 0.00 0.00 0.00 52 1012.2
20260901075353 59 83 1.0 3.0 0.00 0.00 0.00 52 1012.2
20260901074847 59 58 2.0 3.0 0.00 0.00 0.00 50 1012.3
20260901074342 59 69 1.0 3.0 0.00 0.00 0.00 49 1012.3
20260901073838 60 56 2.0 3.0 0.00 0.00 0.00 48 1012.2
20260901073334 59 260 2.0 2.0 0.00 0.00 0.00 49 1012.1
20260901072829 59 257 1.0 3.0 0.00 0.00 0.00 49 1012.2
20260901072329 59 62 0.0 2.0 0.00 0.00 0.00 49 1012.2
20260901071824 59 306 1.0 2.0 0.00 0.00 0.00 50 1012.3
20260901071322 59 212 0.0 2.0 0.00 0.00 0.00 49 1012.2
20260901070821 59 255 0.0 1.0 0.00 0.00 0.00 52 1012.1
20260901070317 60 66 2.0 2.0 0.00 0.00 0.00 50 1011.9
20260901065816 60 24 0.0 4.0 0.00 0.00 0.00 49 1011.9
20260901065312 59 42 2.0 4.0 0.00 0.00 0.00 50 1011.9
20260901064808 60 309 3.0 3.0 0.00 0.00 0.00 50 1012.1
20260901064304 60 86 0.0 3.0 0.00 0.00 0.00 46 1012.3
20260901063801 60 119 0.0 2.0 0.00 0.00 0.00 48 1012.1
20260901063257 60 82 1.0 3.0 0.00 0.00 0.00 46 1012.1
20260901062753 61 72 3.0 3.0 0.00 0.00 0.00 45 1012.1
20260901062248 60 304 2.0 3.0 0.00 0.00 0.00 46 1012.0
20260901061744 60 61 1.0 1.0 0.00 0.00 0.00 44 1012.0
20260901061243 61 85 3.0 3.0 0.00 0.00 0.00 44 1012.1
20260901060739 62 9 0.0 2.0 0.00 0.00 0.00 43 1012.0
20260901060234 62 241 0.0 2.0 0.00 0.00 0.00 43 1012.2
20260901055729 61 269 0.0 2.0 0.00 0.00 0.00 44 1012.1
20260901055226 62 74 3.0 4.0 0.00 0.00 0.00 43 1012.4
20260901054723 62 19 3.0 4.0 0.00 0.00 0.00 43 1012.1
20260901054219 62 305 1.0 3.0 0.00 0.00 0.00 42 1012.1
20260901053715 64 32 0.0 2.0 0.00 0.00 0.00 41 1012.0
20260901053210 63 339 2.0 5.0 0.00 0.00 0.00 40 1012.1
20260901052705 63 228 1.0 2.0 0.00 0.00 0.00 41 1012.2
20260901052201 63 329 0.0 3.0 0.00 0.00 0.00 40 1012.0
20260901051659 65 94 3.0 4.0 0.00 0.00 0.00 39 1012.1
20260901051159 64 45 1.0 2.0 0.00 0.00 0.00 39 1012.1
20260901050654 64 113 0.0 2.0 0.00 0.00 0.00 39 1012.0
20260901050149 64 321 1.0 3.0 0.00 0.00 0.00 39 1012.1
20260901045644 65 183 0.0 3.0 0.00 0.00 0.00 39 1012.1
20260901045139 65 312 3.0 4.0 0.00 0.00 0.00 37 1011.9
20260901044635 65 80 1.0 3.0 0.00 0.00 0.00 37 1012.0
20260901044131 65 322 2.0 3.0 0.00 0.00 0.00 37 1011.9
20260901043626 66 246 1.0 5.0 0.00 0.00 0.00 36 1011.6
20260901043122 65 294 3.0 5.0 0.00 0.00 0.00 38 1011.7
20260901042621 66 47 0.0 2.0 0.00 0.00 0.00 37 1011.7
20260901042116 66 148 1.0 2.0 0.00 0.00 0.00 36 1011.5
20260901041612 67 37 1.0 4.0 0.00 0.00 0.00 35 1011.5
20260901041107 68 337 3.0 3.0 0.00 0.00 0.00 34 1011.6
20260901040606 68 141 0.0 5.0 0.00 0.00 0.00 33 1011.3
20260901040101 68 336 1.0 2.0 0.00 0.00 0.00 33 1011.3
20260901035558 68 304 1.0 4.0 0.00 0.00 0.00 32 1011.3
20260901035057 68 265 3.0 8.0 0.00 0.00 0.00 34 1011.1
20260901034551 69 293 2.0 5.0 0.00 0.00 0.00 33 1011.2
20260901034046 69 55 0.0 2.0 0.00 0.00 0.00 32 1011.2
20260901033544 70 263 4.0 8.0 0.00 0.00 0.00 31 1011.2
20260901033039 70 310 3.0 9.0 0.00 0.00 0.00 31 1011.1
20260901032538 69 308 3.0 6.0 0.00 0.00 0.00 31 1011.0
20260901032034 70 298 4.0 7.0 0.00 0.00 0.00 31 1010.9
20260901031529 71 272 5.0 5.0 0.00 0.00 0.00 31 1010.9
20260901031025 72 308 3.0 6.0 0.00 0.00 0.00 29 1010.6
20260901030524 71 312 3.0 6.0 0.00 0.00 0.00 29 1010.8
20260901030019 71 262 7.0 8.0 0.00 0.00 0.00 30 1010.6
20260901025519 72 283 6.0 9.0 0.00 0.00 0.00 32 1010.6
20260901025013 73 251 2.0 4.0 0.00 0.00 0.00 30 1010.8
20260901024508 75 266 1.0 8.0 0.00 0.00 0.00 27 1010.6
20260901024007 75 129 3.0 9.0 0.00 0.00 0.00 25 1010.4
20260901023501 76 110 7.0 10.0 0.00 0.00 0.00 23 1010.6
20260901022955 76 12 2.0 11.0 0.00 0.00 0.00 24 1010.3
20260901022451 77 102 5.0 9.0 0.00 0.00 0.00 24 1010.3
20260901021946 77 102 8.0 12.0 0.00 0.00 0.00 24 1010.3
20260901021442 77 34 3.0 8.0 0.00 0.00 0.00 26 1010.2
20260901020937 77 57 3.0 11.0 0.00 0.00 0.00 28 1010.1
20260901020432 77 38 5.0 9.0 0.00 0.00 0.00 27 1010.0
20260901015931 78 47 8.0 12.0 0.00 0.00 0.00 27 1010.2
20260901015428 78 78 6.0 10.0 0.00 0.00 0.00 27 1010.0
20260901014927 78 47 3.0 8.0 0.00 0.00 0.00 28 1009.9
20260901014424 78 106 4.0 11.0 0.00 0.00 0.00 27 1009.7
20260901013919 78 74 6.0 14.0 0.00 0.00 0.00 28 1010.1
20260901013414 79 47 7.0 11.0 0.00 0.00 0.00 28 1010.0
20260901012910 79 87 11.0 11.0 0.00 0.00 0.00 29 1010.1
20260901012404 79 134 4.0 9.0 0.00 0.00 0.00 29 1010.0
20260901011900 80 60 10.0 11.0 0.00 0.00 0.00 28 1010.1
20260901011356 80 67 4.0 8.0 0.00 0.00 0.00 28 1010.2
20260901010854 80 8 0.0 11.0 0.00 0.00 0.00 29 1010.1
20260901010349 81 32 2.0 8.0 0.00 0.00 0.00 29 1009.8
20260901005848 81 102 4.0 17.0 0.00 0.00 0.00 28 1009.8
20260901005343 82 77 8.0 15.0 0.00 0.00 0.00 27 1010.0
20260901004838 82 52 4.0 7.0 0.00 0.00 0.00 26 1010.1
20260901004332 82 61 6.0 15.0 0.00 0.00 0.00 26 1010.2
20260901003827 82 125 9.0 15.0 0.00 0.00 0.00 26 1009.9
20260901003322 82 136 4.0 7.0 0.00 0.00 0.00 26 1010.1
20260901002821 83 72 4.0 8.0 0.00 0.00 0.00 25 1010.1
20260901002315 84 319 2.0 8.0 0.00 0.00 0.00 26 1010.1
20260901001815 84 202 4.0 12.0 0.00 0.00 0.00 26 1010.1
20260901001312 83 172 2.0 7.0 0.00 0.00 0.00 26 1010.0
20260901000806 83 153 2.0 8.0 0.00 0.00 0.00 27 1010.1
20260901000303 83 70 4.0 9.0 0.00 0.00 0.00 27 1010.3
20260831235759 82 197 1.0 16.0 0.00 0.00 0.00 27 1010.3
20260831235255 83 239 5.0 14.0 0.00 0.00 0.00 27 1010.0
20260831234750 84 225 5.0 13.0 0.00 0.00 0.00 25 1010.2
20260831234249 85 294 2.0 5.0 0.00 0.00 0.00 25 1010.1
20260831233745 84 189 2.0 7.0 0.00 0.00 0.00 25 1010.2
20260831233240 84 143 4.0 11.0 0.00 0.00 0.00 26 1010.3
20260831232735 84 166 7.0 18.0 0.00 0.00 0.00 26 1010.4
20260831232231 84 293 0.0 12.0 0.00 0.00 0.00 27 1010.5
20260831231727 85 58 2.0 13.0 0.00 0.00 0.00 27 1010.4
20260831231224 85 166 3.0 14.0 0.00 0.00 0.00 27 1010.8
20260831230718 84 213 9.0 14.0 0.00 0.00 0.00 27 1010.4
20260831230213 84 233 6.0 15.0 0.00 0.00 0.00 26 1010.3
20260831225712 86 277 13.0 17.0 0.00 0.00 0.00 25 1010.4
20260831225208 85 247 15.0 16.0 0.00 0.00 0.00 25 1010.6
20260831224703 86 248 3.0 14.0 0.00 0.00 0.00 26 1010.6
20260831224158 85 251 7.0 13.0 0.00 0.00 0.00 26 1010.8
20260831223653 85 206 5.0 17.0 0.00 0.00 0.00 26 1010.6
20260831223150 85 239 5.0 15.0 0.00 0.00 0.00 25 1010.8
20260831222645 87 218 12.0 18.0 0.00 0.00 0.00 24 1010.9
20260831222141 85 102 0.0 3.0 0.00 0.00 0.00 25 1010.5
20260831221636 85 100 6.0 10.0 0.00 0.00 0.00 25 1010.8
20260831221131 86 169 3.0 10.0 0.00 0.00 0.00 25 1011.0
20260831220626 85 193 5.0 13.0 0.00 0.00 0.00 25 1011.1
20260831220121 85 185 3.0 14.0 0.00 0.00 0.00 25 1011.1
20260831215617 86 248 5.0 8.0 0.00 0.00 0.00 25 1011.1
20260831215112 85 195 7.0 17.0 0.00 0.00 0.00 25 1011.2
20260831214610 85 194 5.0 12.0 0.00 0.00 0.00 25 1011.2
20260831214106 86 127 3.0 8.0 0.00 0.00 0.00 25 1011.1
20260831213603 86 121 4.0 10.0 0.00 0.00 0.00 24 1011.2
20260831213057 85 185 7.0 13.0 0.00 0.00 0.00 24 1011.3
20260831212553 85 239 7.0 11.0 0.00 0.00 0.00 24 1011.1
20260831212049 84 188 5.0 13.0 0.00 0.00 0.00 24 1011.2
20260831211543 85 204 5.0 12.0 0.00 0.00 0.00 24 1011.3
20260831211042 85 92 3.0 15.0 0.00 0.00 0.00 24 1011.2
20260831210537 86 117 1.0 9.0 0.00 0.00 0.00 24 1011.4
20260831210034 85 69 4.0 11.0 0.00 0.00 0.00 24 1011.3
20260831205533 84 197 8.0 15.0 0.00 0.00 0.00 25 1011.4
20260831205029 84 178 6.0 11.0 0.00 0.00 0.00 24 1011.2
20260831204524 84 181 7.0 16.0 0.00 0.00 0.00 24 1011.4
20260831204022 85 208 9.0 15.0 0.00 0.00 0.00 22 1011.6
20260831203517 85 181 6.0 8.0 0.00 0.00 0.00 23 1011.2
20260831203016 84 155 5.0 10.0 0.00 0.00 0.00 24 1011.2
20260831202510 83 195 4.0 11.0 0.00 0.00 0.00 25 1011.4
20260831202009 83 221 13.0 13.0 0.00 0.00 0.00 23 1011.5
20260831201508 85 223 6.0 13.0 0.00 0.00 0.00 22 1011.5
20260831201004 85 130 5.0 9.0 0.00 0.00 0.00 22 1011.4
20260831200459 85 92 6.0 13.0 0.00 0.00 0.00 22 1011.4
20260831195954 84 152 4.0 11.0 0.00 0.00 0.00 21 1011.5
20260831195450 85 101 7.0 10.0 0.00 0.00 0.00 23 1011.5
20260831194950 85 131 6.0 10.0 0.00 0.00 0.00 22 1011.7
20260831194445 85 149 3.0 11.0 0.00 0.00 0.00 21 1011.5
20260831193945 84 78 4.0 7.0 0.00 0.00 0.00 20 1011.6
20260831193440 83 192 5.0 11.0 0.00 0.00 0.00 22 1011.6
20260831192935 83 214 3.0 10.0 0.00 0.00 0.00 22 1011.8
20260831192430 84 182 10.0 12.0 0.00 0.00 0.00 23 1011.7
20260831191925 82 144 5.0 14.0 0.00 0.00 0.00 26 1011.7
20260831191421 82 104 5.0 10.0 0.00 0.00 0.00 26 1011.7
20260831190917 82 211 4.0 6.0 0.00 0.00 0.00 27 1011.6
20260831190412 81 201 8.0 15.0 0.00 0.00 0.00 27 1012.0
20260831185911 81 267 2.0 11.0 0.00 0.00 0.00 29 1011.9
20260831185407 81 208 5.0 11.0 0.00 0.00 0.00 29 1011.9
20260831184906 80 289 3.0 11.0 0.00 0.00 0.00 30 1011.9
20260831184401 81 154 7.0 13.0 0.00 0.00 0.00 30 1011.7
20260831183856 82 171 8.0 9.0 0.00 0.00 0.00 31 1011.9
20260831183356 82 179 4.0 9.0 0.00 0.00 0.00 32 1011.9
20260831182855 80 189 5.0 7.0 0.00 0.00 0.00 33 1011.8
20260831182351 81 222 5.0 13.0 0.00 0.00 0.00 33 1011.9
20260831181846 82 332 1.0 7.0 0.00 0.00 0.00 32 1011.9
20260831181341 80 306 2.0 6.0 0.00 0.00 0.00 33 1012.0
20260831180836 80 16 2.0 8.0 0.00 0.00 0.00 33 1012.0
20260831180331 80 207 4.0 8.0 0.00 0.00 0.00 33 1012.0
20260831175830 81 131 6.0 7.0 0.00 0.00 0.00 32 1012.0
20260831175326 79 190 3.0 11.0 0.00 0.00 0.00 34 1012.1
20260831174822 79 181 3.0 9.0 0.00 0.00 0.00 35 1012.1
20260831174317 79 217 4.0 6.0 0.00 0.00 0.00 35 1012.0
20260831173816 79 204 5.0 7.0 0.00 0.00 0.00 35 1011.9
20260831173311 79 243 3.0 6.0 0.00 0.00 0.00 35 1011.9
20260831172806 79 192 5.0 5.0 0.00 0.00 0.00 35 1012.0
20260831172301 79 109 5.0 6.0 0.00 0.00 0.00 37 1011.9
20260831171755 79 128 2.0 7.0 0.00 0.00 0.00 37 1011.8
20260831171253 78 140 5.0 7.0 0.00 0.00 0.00 37 1011.9
20260831170749 77 175 3.0 7.0 0.00 0.00 0.00 38 1011.8
20260831170245 78 109 2.0 5.0 0.00 0.00 0.00 36 1012.0
20260831165741 76 176 2.0 4.0 0.00 0.00 0.00 37 1012.1
20260831165238 76 121 2.0 6.0 0.00 0.00 0.00 37 1012.1
20260831164733 75 294 0.0 6.0 0.00 0.00 0.00 37 1012.1
20260831164229 75 92 1.0 4.0 0.00 0.00 0.00 39 1011.9
20260831163724 75 73 4.0 5.0 0.00 0.00 0.00 39 1012.0
20260831163220 74 145 1.0 4.0 0.00 0.00 0.00 39 1012.1
20260831162718 73 87 4.0 5.0 0.00 0.00 0.00 41 1012.0
20260831162218 72 81 3.0 5.0 0.00 0.00 0.00 40 1012.0
20260831161713 70 78 2.0 6.0 0.00 0.00 0.00 42 1011.9
20260831161209 70 77 4.0 5.0 0.00 0.00 0.00 42 1012.0
20260831160708 70 83 2.0 3.0 0.00 0.00 0.00 42 1012.2
20260831160158 70 102 1.0 5.0 0.00 0.00 0.00 42 1012.3
20260831155657 70 77 3.0 4.0 0.00 0.00 0.00 42 1012.1
20260831155153 69 73 0.0 2.0 0.00 0.00 0.00 42 1012.2
20260831154649 66 77 0.0 2.0 0.00 0.00 0.00 46 1012.3
20260831154144 65 166 0.0 2.0 0.00 0.00 0.00 46 1012.1
20260831153643 65 89 0.0 2.0 0.00 0.00 0.00 45 1012.1
20260831153140 63 185 1.0 2.0 0.00 0.00 0.00 47 1012.2
20260831152635 63 230 0.0 2.0 0.00 0.00 0.00 48 1012.2
20260831152131 64 136 1.0 4.0 0.00 0.00 0.00 48 1012.4
20260831151630 62 158 1.0 2.0 0.00 0.00 0.00 49 1012.5
20260831151125 61 117 0.0 2.0 0.00 0.00 0.00 49 1012.2
20260831150620 60 135 0.0 2.0 0.00 0.00 0.00 50 1012.5
20260831150116 60 156 2.0 3.0 0.00 0.00 0.00 51 1012.2
20260831145609 62 114 2.0 3.0 0.00 0.00 0.00 48 1012.3
20260831145106 59 95 1.0 2.0 0.00 0.00 0.00 52 1012.1
20260831144601 57 185 0.0 3.0 0.00 0.00 0.00 55 1012.4
20260831144056 57 312 0.0 2.0 0.00 0.00 0.00 54 1012.4
20260831143545 59 114 1.0 2.0 0.00 0.00 0.00 51 1012.1
20260831143041 57 38 1.0 3.0 0.00 0.00 0.00 56 1012.3
20260831142537 55 286 1.0 3.0 0.00 0.00 0.00 58 1012.0
20260831142032 53 50 1.0 3.0 0.00 0.00 0.00 60 1012.0
20260831141531 53 238 1.0 3.0 0.00 0.00 0.00 60 1012.0
20260831141027 53 275 2.0 3.0 0.00 0.00 0.00 61 1012.1
20260831140526 53 272 2.0 4.0 0.00 0.00 0.00 59 1012.0
20260831140026 54 167 1.0 3.0 0.00 0.00 0.00 59 1012.0
20260831135524 54 235 0.0 2.0 0.00 0.00 0.00 59 1011.9
20260831135019 53 133 1.0 2.0 0.00 0.00 0.00 59 1012.0
20260831134515 53 242 0.0 2.0 0.00 0.00 0.00 59 1012.0
20260831134015 53 224 0.0 2.0 0.00 0.00 0.00 60 1012.0
20260831133510 52 264 1.0 3.0 0.00 0.00 0.00 61 1011.9
20260831133005 53 99 1.0 3.0 0.00 0.00 0.00 59 1011.9
20260831132501 53 69 3.0 4.0 0.00 0.00 0.00 59 1011.9
20260831131959 53 327 1.0 4.0 0.00 0.00 0.00 59 1011.9